TimeEDT,TemperatureF,Dew PointF,Humidity,Sea Level PressureIn,VisibilityMPH,Wind Direction,Wind SpeedMPH,Gust SpeedMPH,PrecipitationIn,Events,Conditions,WindDirDegrees,DateUTC
12:53 AM,57.9,48.9,72,29.95,10.0,Calm,Calm,-,N/A,,Clear,0,2013-05-07 04:53:00
1:53 AM,57.0,48.9,74,29.93,10.0,Calm,Calm,-,N/A,,Clear,0,2013-05-07 05:53:00
2:53 AM,55.9,48.9,77,29.92,10.0,SW,5.8,-,N/A,,Clear,220,2013-05-07 06:53:00
3:53 AM,57.0,50.0,77,29.91,10.0,SW,6.9,-,N/A,,Overcast,220,2013-05-07 07:53:00
4:53 AM,57.9,50.0,75,29.91,10.0,WSW,4.6,-,N/A,,Overcast,240,2013-05-07 08:53:00
5:53 AM,57.0,53.1,87,29.92,10.0,WSW,9.2,-,0.01,Rain,Light Rain,240,2013-05-07 09:53:00
6:53 AM,57.0,54.0,89,29.93,10.0,SSW,8.1,-,0.00,,Overcast,200,2013-05-07 10:53:00
7:53 AM,57.9,54.0,87,29.94,10.0,SW,6.9,-,0.00,,Mostly Cloudy,230,2013-05-07 11:53:00
8:53 AM,59.0,55.0,87,29.96,10.0,SW,6.9,-,N/A,,Mostly Cloudy,230,2013-05-07 12:53:00
9:53 AM,62.1,55.0,78,29.97,10.0,WSW,6.9,-,N/A,,Mostly Cloudy,240,2013-05-07 13:53:00
10:53 AM,66.0,53.1,63,29.96,10.0,WSW,10.4,-,N/A,,Mostly Cloudy,250,2013-05-07 14:53:00
11:53 AM,64.9,54.0,68,29.97,10.0,WSW,4.6,-,N/A,,Overcast,240,2013-05-07 15:53:00
12:53 PM,68.0,53.1,59,29.96,10.0,WSW,12.7,19.6,N/A,,Mostly Cloudy,240,2013-05-07 16:53:00
1:53 PM,66.0,57.9,75,29.95,10.0,WSW,9.2,-,0.02,,Mostly Cloudy,250,2013-05-07 17:53:00
2:53 PM,71.1,52.0,51,29.93,10.0,West,8.1,-,N/A,,Mostly Cloudy,270,2013-05-07 18:53:00
3:53 PM,72.0,48.0,43,29.91,10.0,West,13.8,19.6,N/A,,Mostly Cloudy,260,2013-05-07 19:53:00
4:53 PM,72.0,48.9,44,29.92,10.0,West,12.7,-,N/A,,Mostly Cloudy,280,2013-05-07 20:53:00
5:53 PM,73.0,48.9,42,29.92,10.0,West,13.8,-,N/A,,Mostly Cloudy,270,2013-05-07 21:53:00
6:53 PM,71.1,46.9,42,29.93,10.0,West,11.5,-,N/A,,Mostly Cloudy,280,2013-05-07 22:53:00
7:53 PM,66.9,48.9,52,29.95,10.0,West,8.1,-,N/A,,Partly Cloudy,280,2013-05-07 23:53:00
8:53 PM,64.0,50.0,60,29.97,10.0,Calm,Calm,-,N/A,,Clear,0,2013-05-08 00:53:00
9:53 PM,59.0,52.0,78,29.99,10.0,Calm,Calm,-,N/A,,Clear,0,2013-05-08 01:53:00
10:53 PM,57.9,52.0,81,30.00,10.0,Calm,Calm,-,N/A,,Clear,0,2013-05-08 02:53:00
11:53 PM,57.0,51.1,81,30.01,10.0,West,3.5,-,N/A,,Clear,280,2013-05-08 03:53:00